FW5857 Weather Reports


Display with metric or nautical units.
time (UTC)temp
F
wind
direction
speed
MPH
gust
MPH
rain 1hr
in
rain 24hr
in
rain mn
in
humidity
%
barometer
mb
20260504050541 57 202 4.0 9.0 0.00 0.00 0.00 63 1005.5
20260504050020 57 212 5.0 11.0 0.00 0.00 0.00 63 1005.6
20260504045539 57 206 4.0 9.0 0.00 0.00 0.00 63 1005.6
20260504045019 57 187 5.0 10.0 0.00 0.00 0.00 63 1005.5
20260504044519 57 180 4.0 9.0 0.00 0.00 0.00 63 1005.5
20260504044018 57 195 4.0 9.0 0.00 0.00 0.00 62 1005.5
20260504043519 57 198 4.0 8.0 0.00 0.00 0.00 62 1005.5
20260504043019 58 207 4.0 8.0 0.00 0.00 0.00 62 1005.6
20260504042518 58 206 2.0 6.0 0.00 0.00 0.00 61 1005.6
20260504042017 58 207 3.0 9.0 0.00 0.00 0.00 61 1005.4
20260504041536 59 196 2.0 8.0 0.00 0.00 0.00 60 1005.4
20260504041016 59 195 4.0 9.0 0.00 0.00 0.00 59 1005.5
20260504040536 59 193 5.0 14.0 0.00 0.00 0.00 59 1005.4
20260504040016 59 191 5.0 10.0 0.00 0.00 0.00 59 1005.5
20260504035523 59 199 6.0 14.0 0.00 0.00 0.00 58 1005.4
20260504035023 60 189 6.0 12.0 0.00 0.00 0.00 58 1005.5
20260504034523 60 204 4.0 13.0 0.00 0.00 0.00 58 1005.6
20260504034022 60 193 5.0 9.0 0.00 0.00 0.00 58 1005.6
20260504033522 60 186 4.0 9.0 0.00 0.00 0.00 57 1005.6
20260504033022 60 186 5.0 13.0 0.00 0.00 0.00 57 1005.6
20260504032521 60 186 6.0 12.0 0.00 0.00 0.00 57 1005.6
20260504032021 60 187 5.0 11.0 0.00 0.00 0.00 57 1005.7
20260504031520 60 189 5.0 12.0 0.00 0.00 0.00 57 1005.7
20260504031020 60 185 4.0 11.0 0.00 0.00 0.00 56 1005.8
20260504030520 60 178 4.0 6.0 0.00 0.00 0.00 56 1005.9
20260504030020 61 184 4.0 10.0 0.00 0.00 0.00 56 1005.8
20260504025518 61 177 4.0 11.0 0.00 0.00 0.00 55 1005.9
20260504025018 61 188 5.0 11.0 0.00 0.00 0.00 55 1005.9
20260504024518 61 184 5.0 9.0 0.00 0.00 0.00 55 1005.9
20260504024037 61 185 4.0 9.0 0.00 0.00 0.00 55 1005.8
20260504023517 61 184 3.0 8.0 0.00 0.00 0.00 55 1005.8
20260504023017 61 191 3.0 9.0 0.00 0.00 0.00 54 1005.9
20260504022517 61 185 3.0 6.0 0.00 0.00 0.00 54 1005.9
20260504022016 62 182 3.0 11.0 0.00 0.00 0.00 53 1005.7
20260504021516 62 195 4.0 9.0 0.00 0.00 0.00 52 1005.7
20260504021016 62 188 4.0 7.0 0.00 0.00 0.00 52 1005.6
20260504020523 62 182 3.0 7.0 0.00 0.00 0.00 51 1005.6
20260504020024 62 183 4.0 7.0 0.00 0.00 0.00 51 1005.6
20260504015542 62 182 3.0 8.0 0.00 0.00 0.00 50 1005.7
20260504015022 63 192 4.0 7.0 0.00 0.00 0.00 50 1005.6
20260504014522 63 174 3.0 7.0 0.00 0.00 0.00 50 1005.6
20260504014041 63 185 3.0 5.0 0.00 0.00 0.00 49 1005.6
20260504013521 63 191 2.0 6.0 0.00 0.00 0.00 49 1005.5
20260504013021 63 192 2.0 5.0 0.00 0.00 0.00 48 1005.5
20260504012520 64 189 3.0 5.0 0.00 0.00 0.00 48 1005.4
20260504012020 64 182 2.0 5.0 0.00 0.00 0.00 48 1005.3
20260504011519 64 192 2.0 5.0 0.00 0.00 0.00 47 1005.3
20260504011059 64 201 2.0 6.0 0.00 0.00 0.00 47 1005.2
20260504010519 65 195 3.0 7.0 0.00 0.00 0.00 46 1005.2
20260504010018 65 198 2.0 7.0 0.00 0.00 0.00 46 1005.1
20260504005518 65 195 3.0 7.0 0.00 0.00 0.00 45 1005.1
20260504005017 66 188 4.0 9.0 0.00 0.00 0.00 45 1005.1
20260504004517 66 198 3.0 8.0 0.00 0.00 0.00 45 1005.1
20260504004017 66 201 4.0 8.0 0.00 0.00 0.00 44 1005.2
20260504003516 67 199 4.0 9.0 0.00 0.00 0.00 44 1005.2
20260504003036 67 196 3.0 6.0 0.00 0.00 0.00 43 1005.2
20260504002523 67 209 3.0 5.0 0.00 0.00 0.00 43 1005.1
20260504002023 68 219 3.0 7.0 0.00 0.00 0.00 42 1005.1
20260504001523 68 223 4.0 10.0 0.00 0.00 0.00 42 1005.1
20260504001022 68 228 5.0 14.0 0.00 0.00 0.00 42 1005.1
20260504000522 68 224 4.0 14.0 0.00 0.00 0.00 41 1005.2
20260504000022 68 229 5.0 16.0 0.00 0.00 0.00 41 1005.3
20260503235520 68 218 5.0 16.0 0.00 0.00 0.00 41 1005.2
20260503235020 69 236 5.0 12.0 0.00 0.00 0.00 40 1005.3
20260503234519 69 225 4.0 17.0 0.00 0.00 0.00 40 1005.3
20260503234019 69 225 6.0 13.0 0.00 0.00 0.00 40 1005.2
20260503233519 69 219 6.0 15.0 0.00 0.00 0.00 40 1005.3
20260503233039 69 222 4.0 13.0 0.00 0.00 0.00 40 1005.3
20260503232519 69 232 5.0 12.0 0.00 0.00 0.00 39 1005.3
20260503232018 69 226 5.0 11.0 0.00 0.00 0.00 39 1005.4
20260503231517 69 242 4.0 10.0 0.00 0.00 0.00 39 1005.5
20260503231017 69 245 5.0 13.0 0.00 0.00 0.00 39 1005.5
20260503230517 69 255 5.0 13.0 0.00 0.00 0.00 39 1005.6
20260503230016 69 235 6.0 18.0 0.00 0.00 0.00 38 1005.6
20260503225516 69 234 6.0 17.0 0.00 0.00 0.00 38 1005.6
20260503225044 70 240 5.0 15.0 0.00 0.00 0.00 38 1005.6
20260503224523 70 241 3.0 10.0 0.00 0.00 0.00 38 1005.5
20260503224043 69 241 5.0 15.0 0.00 0.00 0.00 38 1005.6
20260503223522 69 237 8.0 19.0 0.00 0.00 0.00 38 1005.7
20260503223022 69 231 8.0 20.0 0.00 0.00 0.00 38 1005.7
20260503222521 69 225 8.0 22.0 0.00 0.00 0.00 39 1005.6
20260503222020 69 228 9.0 20.0 0.00 0.00 0.00 39 1005.5
20260503221520 69 231 8.0 21.0 0.00 0.00 0.00 39 1005.6
20260503221020 68 207 9.0 21.0 0.00 0.00 0.00 40 1005.6
20260503220540 68 198 7.0 16.0 0.00 0.00 0.00 40 1005.6
20260503220019 67 193 7.0 19.0 0.00 0.00 0.00 41 1005.6
20260503215518 67 194 8.0 24.0 0.00 0.00 0.00 40 1005.7
20260503215018 67 203 8.0 19.0 0.00 0.00 0.00 40 1005.8
20260503214518 67 189 8.0 18.0 0.00 0.00 0.00 40 1005.8
20260503214037 67 205 8.0 18.0 0.00 0.00 0.00 40 1005.8
20260503213517 67 205 10.0 23.0 0.00 0.00 0.00 40 1006.0
20260503213037 67 193 8.0 19.0 0.00 0.00 0.00 40 1006.1
20260503212515 67 209 9.0 20.0 0.00 0.00 0.00 41 1006.2
20260503212023 67 199 8.0 21.0 0.00 0.00 0.00 41 1006.2
20260503211523 66 204 7.0 22.0 0.00 0.00 0.00 41 1006.2
20260503211022 66 189 9.0 23.0 0.00 0.00 0.00 40 1006.4
20260503210522 66 194 7.0 23.0 0.00 0.00 0.00 41 1006.5
20260503210022 66 205 10.0 21.0 0.00 0.00 0.00 41 1006.6
20260503205521 65 205 8.0 18.0 0.00 0.00 0.00 42 1006.6
20260503205021 65 204 10.0 25.0 0.00 0.00 0.00 40 1006.8
20260503204521 66 196 10.0 24.0 0.00 0.00 0.00 41 1006.9
20260503204021 66 205 8.0 23.0 0.00 0.00 0.00 40 1007.1
20260503203520 65 198 9.0 22.0 0.00 0.00 0.00 40 1007.2
20260503203019 65 210 10.0 22.0 0.00 0.00 0.00 40 1007.2
20260503202518 64 199 9.0 26.0 0.00 0.00 0.00 41 1007.3
20260503202018 64 199 9.0 22.0 0.00 0.00 0.00 41 1007.4
20260503201538 64 204 10.0 23.0 0.00 0.00 0.00 41 1007.5
20260503201017 64 198 11.0 22.0 0.00 0.00 0.00 41 1007.6
20260503200517 65 198 12.0 26.0 0.00 0.00 0.00 40 1007.7
20260503200017 65 199 10.0 22.0 0.00 0.00 0.00 44 1007.7
20260503195516 64 211 10.0 24.0 0.00 0.00 0.00 46 1007.9
20260503195016 64 194 10.0 27.0 0.00 0.00 0.00 47 1007.9
20260503194536 63 202 8.0 23.0 0.00 0.00 0.00 48 1007.9
20260503194016 63 195 13.0 32.0 0.00 0.00 0.00 48 1008.1
20260503193523 62 189 10.0 22.0 0.00 0.00 0.00 49 1008.2
20260503193023 62 185 11.0 26.0 0.00 0.00 0.00 51 1008.3
20260503192522 61 190 10.0 24.0 0.00 0.00 0.00 50 1008.5
20260503192022 61 190 11.0 27.0 0.00 0.00 0.00 50 1008.6
20260503191522 61 175 12.0 26.0 0.00 0.00 0.00 50 1008.7
20260503191021 61 187 12.0 24.0 0.00 0.00 0.00 50 1008.5
20260503190521 60 183 12.0 26.0 0.00 0.00 0.00 50 1008.6
20260503190021 60 192 10.0 23.0 0.00 0.00 0.00 50 1008.5
20260503185520 60 182 12.0 26.0 0.00 0.00 0.00 50 1008.4
20260503185040 60 176 10.0 28.0 0.00 0.00 0.00 50 1008.6
20260503184519 59 181 11.0 27.0 0.00 0.00 0.00 49 1008.7
20260503184019 59 190 10.0 24.0 0.00 0.00 0.00 49 1008.8
20260503183519 59 185 11.0 24.0 0.00 0.00 0.00 49 1008.8
20260503183019 59 174 12.0 26.0 0.00 0.00 0.00 48 1008.7
20260503182518 59 175 11.0 26.0 0.00 0.00 0.00 49 1008.9
20260503182058 59 174 12.0 26.0 0.00 0.00 0.00 49 1009.1
20260503181557 59 179 9.0 23.0 0.00 0.00 0.00 50 1009.2
20260503181017 59 187 10.0 27.0 0.00 0.00 0.00 49 1009.3
20260503180517 59 176 10.0 22.0 0.00 0.00 0.00 51 1009.4
20260503180016 58 186 9.0 20.0 0.00 0.00 0.00 52 1009.5
20260503175516 57 178 11.0 21.0 0.00 0.00 0.00 53 1009.7
20260503175015 57 172 11.0 23.0 0.00 0.00 0.00 53 1009.7
20260503174523 57 176 10.0 23.0 0.00 0.00 0.00 53 1009.7
20260503174023 57 173 9.0 21.0 0.00 0.00 0.00 53 1010.0
20260503173543 57 181 11.0 25.0 0.00 0.00 0.00 52 1010.1
20260503173043 57 177 9.0 24.0 0.00 0.00 0.00 54 1010.2
20260503172521 57 175 10.0 28.0 0.00 0.00 0.00 56 1010.4
20260503172041 56 180 11.0 26.0 0.00 0.00 0.00 56 1010.5
20260503171521 56 177 11.0 26.0 0.00 0.00 0.00 57 1010.6
20260503171020 56 176 10.0 25.0 0.00 0.00 0.00 59 1010.8
20260503170520 56 178 11.0 25.0 0.00 0.00 0.00 59 1011.0
20260503150518 54 207 11.0 27.0 0.00 0.00 0.00 56 1013.0
20260503131019 49 208 5.0 12.0 0.00 0.00 0.00 60 1013.7
20260503130519 49 188 7.0 17.0 0.00 0.00 0.00 60 1013.6
20260503110518 46 180 5.0 11.0 0.00 0.00 0.00 60 1013.2
20260503081541 47 190 6.0 15.0 0.00 0.00 0.00 50 1014.1
20260503081021 47 183 3.0 10.0 0.00 0.00 0.00 50 1014.1
20260503080521 47 191 5.0 10.0 0.00 0.00 0.00 50 1014.2
20260503072518 48 190 5.0 10.0 0.00 0.00 0.00 48 1014.2
20260503072019 48 174 5.0 12.0 0.00 0.00 0.00 47 1014.4
20260503071518 48 181 5.0 11.0 0.00 0.00 0.00 47 1014.3
20260503071018 48 185 5.0 10.0 0.00 0.00 0.00 47 1014.3
20260503070518 48 177 4.0 10.0 0.00 0.00 0.00 47 1014.3